Time,TemperatureF,DewpointF,PressureIn,WindDirection,WindDirectionDegrees,WindSpeedMPH,WindSpeedGustMPH,Humidity,HourlyPrecipIn,Conditions,Clouds,dailyrainin,SoftwareType,DateUTC
2013-07-01 00:12:00,45.6,39.0,29.98,West,262,0.0,1.0,77,0.00,,,0.00,weatherlink.com 1.10,2013-07-01 06:12:00,
2013-07-01 00:27:00,44.8,39.0,29.99,West,262,0.0,1.0,79,0.00,,,0.00,weatherlink.com 1.10,2013-07-01 06:27:00,
2013-07-01 00:42:00,44.0,38.0,29.99,West,262,0.0,1.0,80,0.00,,,0.00,weatherlink.com 1.10,2013-07-01 06:42:00,
2013-07-01 00:57:00,43.3,38.0,29.99,WSW,258,0.0,1.0,81,0.00,,,0.00,weatherlink.com 1.10,2013-07-01 06:57:00,
2013-07-01 01:12:00,43.3,38.0,30.00,WSW,257,1.0,1.0,82,0.00,,,0.00,weatherlink.com 1.10,2013-07-01 07:12:00,
2013-07-01 01:27:00,42.9,38.0,30.00,WSW,257,0.0,1.0,82,0.00,,,0.00,weatherlink.com 1.10,2013-07-01 07:27:00,
2013-07-01 01:42:00,42.3,37.0,30.00,WSW,257,0.0,1.0,82,0.00,,,0.00,weatherlink.com 1.10,2013-07-01 07:42:00,
2013-07-01 01:57:00,41.5,37.0,30.00,WSW,257,0.0,0.0,84,0.00,,,0.00,weatherlink.com 1.10,2013-07-01 07:57:00,
2013-07-01 02:12:00,40.9,37.0,30.00,WSW,257,1.0,1.0,85,0.00,,,0.00,weatherlink.com 1.10,2013-07-01 08:12:00,
2013-07-01 02:27:00,40.8,37.0,30.00,WSW,257,0.0,1.0,85,0.00,,,0.00,weatherlink.com 1.10,2013-07-01 08:27:00,
2013-07-01 02:42:00,40.4,36.0,29.99,WSW,257,0.0,1.0,84,0.00,,,0.00,weatherlink.com 1.10,2013-07-01 08:42:00,
2013-07-01 02:57:00,40.0,36.0,30.00,WSW,257,0.0,1.0,85,0.00,,,0.00,weatherlink.com 1.10,2013-07-01 08:57:00,
2013-07-01 03:12:00,39.8,36.0,30.00,WSW,257,0.0,1.0,85,0.00,,,0.00,weatherlink.com 1.10,2013-07-01 09:12:00,
2013-07-01 03:27:00,39.4,35.0,30.00,WSW,257,0.0,1.0,85,0.00,,,0.00,weatherlink.com 1.10,2013-07-01 09:27:00,
2013-07-01 03:42:00,38.9,35.0,30.01,WSW,257,0.0,1.0,86,0.00,,,0.00,weatherlink.com 1.10,2013-07-01 09:42:00,
2013-07-01 03:57:00,38.4,35.0,30.01,WSW,257,0.0,1.0,87,0.00,,,0.00,weatherlink.com 1.10,2013-07-01 09:57:00,
2013-07-01 04:12:00,38.4,35.0,30.01,WSW,257,0.0,1.0,87,0.00,,,0.00,weatherlink.com 1.10,2013-07-01 10:12:00,
2013-07-01 04:28:00,38.1,35.0,30.01,WSW,257,0.0,1.0,88,0.00,,,0.00,weatherlink.com 1.10,2013-07-01 10:28:00,
2013-07-01 04:43:00,37.6,34.0,30.01,WSW,257,0.0,1.0,88,0.00,,,0.00,weatherlink.com 1.10,2013-07-01 10:43:00,
2013-07-01 04:58:00,37.3,34.0,30.01,WSW,257,0.0,1.0,89,0.00,,,0.00,weatherlink.com 1.10,2013-07-01 10:58:00,
2013-07-01 05:13:00,37.2,34.0,30.02,WSW,257,1.0,1.0,89,0.00,,,0.00,weatherlink.com 1.10,2013-07-01 11:13:00,
2013-07-01 05:28:00,36.8,34.0,30.02,WSW,257,0.0,1.0,90,0.00,,,0.00,weatherlink.com 1.10,2013-07-01 11:28:00,
2013-07-01 05:43:00,36.4,34.0,30.03,WSW,257,0.0,1.0,90,0.00,,,0.00,weatherlink.com 1.10,2013-07-01 11:43:00,
2013-07-01 05:58:00,36.3,34.0,30.03,WSW,257,0.0,1.0,91,0.00,,,0.00,weatherlink.com 1.10,2013-07-01 11:58:00,
2013-07-01 06:13:00,36.3,34.0,30.03,WSW,257,0.0,1.0,91,0.00,,,0.00,weatherlink.com 1.10,2013-07-01 12:13:00,
2013-07-01 06:28:00,36.4,34.0,30.04,WSW,257,0.0,1.0,91,0.00,,,0.00,weatherlink.com 1.10,2013-07-01 12:28:00,
2013-07-01 06:43:00,36.5,34.0,30.04,WSW,257,0.0,1.0,91,0.00,,,0.00,weatherlink.com 1.10,2013-07-01 12:43:00,
2013-07-01 06:58:00,37.2,35.0,30.04,WSW,257,0.0,1.0,93,0.00,,,0.00,weatherlink.com 1.10,2013-07-01 12:58:00,
2013-07-01 07:13:00,39.0,37.0,30.04,WSW,257,0.0,1.0,91,0.00,,,0.00,weatherlink.com 1.10,2013-07-01 13:13:00,
2013-07-01 07:28:00,40.5,38.0,30.04,WSW,257,0.0,1.0,89,0.00,,,0.00,weatherlink.com 1.10,2013-07-01 13:28:00,
2013-07-01 07:43:00,41.8,39.0,30.03,WSW,257,0.0,1.0,89,0.00,,,0.00,weatherlink.com 1.10,2013-07-01 13:43:00,
2013-07-01 07:58:00,44.1,41.0,30.03,WSW,257,0.0,0.0,87,0.00,,,0.00,weatherlink.com 1.10,2013-07-01 13:58:00,
2013-07-01 08:13:00,46.5,41.0,30.02,WSW,257,0.0,1.0,82,0.00,,,0.00,weatherlink.com 1.10,2013-07-01 14:13:00,
2013-07-01 08:28:00,50.2,41.0,30.02,SSE,160,0.0,1.0,71,0.00,,,0.00,weatherlink.com 1.10,2013-07-01 14:28:00,
2013-07-01 08:43:00,53.3,41.0,30.01,East,88,3.0,3.0,64,0.00,,,0.00,weatherlink.com 1.10,2013-07-01 14:43:00,
2013-07-01 08:58:00,55.4,42.0,30.00,ESE,115,1.0,5.0,61,0.00,,,0.00,weatherlink.com 1.10,2013-07-01 14:58:00,
2013-07-01 09:13:00,56.8,42.0,29.99,East,81,4.0,7.0,59,0.00,,,0.00,weatherlink.com 1.10,2013-07-01 15:13:00,
2013-07-01 09:43:00,62.3,37.0,29.97,NW,323,0.0,8.0,39,0.00,,,0.00,weatherlink.com 1.10,2013-07-01 15:43:00,
2013-07-01 09:58:00,65.0,30.0,29.97,East,101,1.0,9.0,27,0.00,,,0.00,weatherlink.com 1.10,2013-07-01 15:58:00,
2013-07-01 10:13:00,66.5,27.0,29.97,ENE,73,3.0,13.0,23,0.00,,,0.00,weatherlink.com 1.10,2013-07-01 16:13:00,
2013-07-01 10:29:00,67.9,29.0,29.96,ESE,108,6.0,15.0,23,0.00,,,0.00,weatherlink.com 1.10,2013-07-01 16:29:00,
2013-07-01 10:44:00,69.4,28.0,29.97,West,266,3.0,6.0,21,0.00,,,0.00,weatherlink.com 1.10,2013-07-01 16:44:00,
2013-07-01 10:59:00,70.0,31.0,29.96,East,91,3.0,4.0,24,0.00,,,0.00,weatherlink.com 1.10,2013-07-01 16:59:00,
2013-07-01 11:14:00,71.6,27.0,29.95,WNW,294,3.0,7.0,19,0.00,,,0.00,weatherlink.com 1.10,2013-07-01 17:14:00,
2013-07-01 11:29:00,71.3,28.0,29.94,WSW,255,0.0,6.0,20,0.00,,,0.00,weatherlink.com 1.10,2013-07-01 17:29:00,
2013-07-01 11:44:00,72.7,30.0,29.94,West,264,2.0,9.0,21,0.00,,,0.00,weatherlink.com 1.10,2013-07-01 17:44:00,
2013-07-01 11:59:00,74.3,28.0,29.92,West,264,1.0,7.0,18,0.00,,,0.00,weatherlink.com 1.10,2013-07-01 17:59:00,
2013-07-01 12:14:00,74.4,28.0,29.93,East,89,2.0,9.0,18,0.00,,,0.00,weatherlink.com 1.10,2013-07-01 18:14:00,
2013-07-01 12:29:00,73.9,29.0,29.90,NW,305,7.0,13.0,19,0.00,,,0.00,weatherlink.com 1.10,2013-07-01 18:29:00,
2013-07-01 12:44:00,72.3,32.0,29.91,East,93,1.0,7.0,23,0.00,,,0.00,weatherlink.com 1.10,2013-07-01 18:44:00,
2013-07-01 12:59:00,70.5,29.0,29.91,East,86,3.0,8.0,21,0.00,,,0.00,weatherlink.com 1.10,2013-07-01 18:59:00,
2013-07-01 13:14:00,70.3,30.0,29.91,East,82,1.0,14.0,22,0.00,,,0.00,weatherlink.com 1.10,2013-07-01 19:14:00,
2013-07-01 13:29:00,70.8,25.0,29.90,North,3,1.0,6.0,18,0.00,,,0.00,weatherlink.com 1.10,2013-07-01 19:29:00,
2013-07-01 13:44:00,71.4,28.0,29.89,ENE,70,1.0,10.0,20,0.00,,,0.00,weatherlink.com 1.10,2013-07-01 19:44:00,
2013-07-01 14:14:00,72.0,27.0,29.89,WSW,245,0.0,4.0,19,0.00,,,0.00,weatherlink.com 1.10,2013-07-01 20:14:00,
2013-07-01 14:29:00,72.4,29.0,29.89,NNE,29,1.0,5.0,20,0.00,,,0.00,weatherlink.com 1.10,2013-07-01 20:29:00,
2013-07-01 14:44:00,75.8,29.0,29.87,North,4,4.0,7.0,18,0.00,,,0.00,weatherlink.com 1.10,2013-07-01 20:44:00,
2013-07-01 14:59:00,75.9,28.0,29.87,NW,324,0.0,6.0,17,0.00,,,0.00,weatherlink.com 1.10,2013-07-01 20:59:00,
2013-07-01 15:14:00,76.3,32.0,29.88,WNW,301,2.0,13.0,20,0.00,,,0.00,weatherlink.com 1.10,2013-07-01 21:14:00,
2013-07-01 15:44:00,75.5,26.0,29.86,NE,36,2.0,15.0,16,0.00,,,0.00,weatherlink.com 1.10,2013-07-01 21:44:00,
2013-07-01 15:59:00,74.5,27.0,29.86,NNW,333,3.0,5.0,17,0.00,,,0.00,weatherlink.com 1.10,2013-07-01 21:59:00,
2013-07-01 16:14:00,72.6,30.0,29.88,East,88,1.0,14.0,21,0.00,,,0.00,weatherlink.com 1.10,2013-07-01 22:14:00,
2013-07-01 16:29:00,71.9,37.0,29.87,WSW,257,4.0,6.0,28,0.00,,,0.00,weatherlink.com 1.10,2013-07-01 22:29:00,
2013-07-01 16:44:00,72.0,39.0,29.87,West,270,3.0,9.0,30,0.00,,,0.00,weatherlink.com 1.10,2013-07-01 22:44:00,
2013-07-01 16:59:00,73.3,39.0,29.86,SW,221,0.0,6.0,29,0.00,,,0.00,weatherlink.com 1.10,2013-07-01 22:59:00,
2013-07-01 17:14:00,73.4,39.0,29.88,East,93,1.0,3.0,29,0.00,,,0.00,weatherlink.com 1.10,2013-07-01 23:14:00,
2013-07-01 17:29:00,72.7,38.0,29.87,East,98,1.0,6.0,28,0.00,,,0.00,weatherlink.com 1.10,2013-07-01 23:29:00,
2013-07-01 17:44:00,71.6,34.0,29.88,ESE,112,3.0,8.0,25,0.00,,,0.00,weatherlink.com 1.10,2013-07-01 23:44:00,
2013-07-01 17:59:00,70.6,39.0,29.87,WNW,285,5.0,8.0,32,0.00,,,0.00,weatherlink.com 1.10,2013-07-01 23:59:00,
2013-07-01 18:14:00,70.1,40.0,29.87,West,280,3.0,9.0,33,0.00,,,0.00,weatherlink.com 1.10,2013-07-02 00:14:00,
2013-07-01 18:29:00,69.4,39.0,29.87,West,266,4.0,6.0,33,0.00,,,0.00,weatherlink.com 1.10,2013-07-02 00:29:00,
2013-07-01 18:45:00,69.3,38.0,29.87,ESE,105,1.0,11.0,32,0.00,,,0.00,weatherlink.com 1.10,2013-07-02 00:45:00,
2013-07-01 19:00:00,68.1,41.0,29.88,ESE,109,3.0,12.0,37,0.00,,,0.00,weatherlink.com 1.10,2013-07-02 01:00:00,
2013-07-01 19:15:00,65.0,40.0,29.88,West,265,3.0,8.0,40,0.00,,,0.00,weatherlink.com 1.10,2013-07-02 01:15:00,
2013-07-01 19:30:00,63.4,41.0,29.88,SW,234,1.0,6.0,44,0.00,,,0.00,weatherlink.com 1.10,2013-07-02 01:30:00,
2013-07-01 19:45:00,62.9,40.0,29.89,WNW,291,4.0,8.0,44,0.00,,,0.00,weatherlink.com 1.10,2013-07-02 01:45:00,
2013-07-01 20:00:00,61.9,40.0,29.89,West,269,1.0,7.0,44,0.00,,,0.00,weatherlink.com 1.10,2013-07-02 02:00:00,
2013-07-01 20:15:00,61.6,39.0,29.90,West,262,0.0,3.0,44,0.00,,,0.00,weatherlink.com 1.10,2013-07-02 02:15:00,
2013-07-01 20:30:00,60.7,40.0,29.90,West,281,0.0,1.0,47,0.00,,,0.00,weatherlink.com 1.10,2013-07-02 02:30:00,
2013-07-01 20:45:00,59.0,40.0,29.91,West,281,0.0,1.0,50,0.00,,,0.00,weatherlink.com 1.10,2013-07-02 02:45:00,
2013-07-01 21:00:00,57.2,39.0,29.91,West,281,0.0,1.0,52,0.00,,,0.00,weatherlink.com 1.10,2013-07-02 03:00:00,
2013-07-01 21:15:00,56.1,39.0,29.92,West,262,0.0,1.0,54,0.00,,,0.00,weatherlink.com 1.10,2013-07-02 03:15:00,
2013-07-01 21:30:00,54.5,39.0,29.93,West,262,0.0,1.0,57,0.00,,,0.00,weatherlink.com 1.10,2013-07-02 03:30:00,
2013-07-01 21:45:00,53.9,39.0,29.94,SE,127,0.0,1.0,58,0.00,,,0.00,weatherlink.com 1.10,2013-07-02 03:45:00,
2013-07-01 22:15:00,51.7,38.0,29.96,SSE,160,0.0,1.0,61,0.00,,,0.00,weatherlink.com 1.10,2013-07-02 04:15:00,
2013-07-01 22:30:00,51.3,39.0,29.97,South,175,0.0,1.0,64,0.00,,,0.00,weatherlink.com 1.10,2013-07-02 04:30:00,
2013-07-01 22:45:00,51.4,39.0,29.97,West,262,0.0,2.0,64,0.00,,,0.00,weatherlink.com 1.10,2013-07-02 04:45:00,
2013-07-01 23:00:00,50.9,40.0,29.97,East,101,0.0,4.0,67,0.00,,,0.00,weatherlink.com 1.10,2013-07-02 05:00:00,
2013-07-01 23:15:00,49.2,38.0,29.97,SSE,167,0.0,1.0,66,0.00,,,0.00,weatherlink.com 1.10,2013-07-02 05:15:00,
2013-07-01 23:30:00,47.9,38.0,29.97,SSE,167,0.0,0.0,68,0.00,,,0.00,weatherlink.com 1.10,2013-07-02 05:30:00,
2013-07-01 23:45:00,47.0,38.0,29.98,SSE,167,0.0,0.0,71,0.00,,,0.00,weatherlink.com 1.10,2013-07-02 05:45:00,